International Virtual Aviation Organisation

Eastern Europe and Northern Asia MCD

 

Карточка аэропорта UNBB

Внимание!
Информация на этой странице в стадии наполнения.
Если вы не увидели какой-то информации, или заметили неточность - пожалуйста сообщите нам!
Спасибо!
Команда RU-STAFF
Название аэропортаМихайловка
Название аэропорта (англ.)Mikhaylovka
Превышение837 ft. (255.1 m.)
Координаты53°21.798', 83°32.382'
Высота перехода700m
Эшелон переходаFL050
Коды ответчика5301-5307
Зона ОрВДНовосибирск РПИ (UNNT)
Данные METARUNBB 121230Z 22003MPS CAVOK 12/M06 Q1029 R24/CLRD66 NOSIG RMK QFE749
Проноз погоды (TAF)UNBB 121100Z 1212/1312 18003G08MPS 9999 SCT040 TEMPO 1212/1215 30003MPS FM122200 27003G08MPS 6000 -SHRA BKN016CB FM130200 34003G08MPS 9999 BKN030
NOTAMshow/hide NOTAM
AWOS   TABLE

Информация о ВПП

ВПП Длина ВПП (м.) Покрытие Курс ВПП Частота ILS
062853Асфальтобетон59 
242853Асфальтобетон239108.7

Диспетчерские позиции




Спутниковое изображение